Orlando International, FL

11:46 PM EDT on April 24, 2017 (GMT -0400)
Orlando International

Weather History for KMCO - October, 2011

Change the Weather History Date:

Friday, October 28, 2011

  Actual Average Record
Temperature  
Mean Temperature 72 °F 73 °F  
Max Temperature 75 °F 82 °F 92 °F (1980)
Min Temperature 68 °F 63 °F 43 °F (1957)
Degree Days  
Heating Degree Days 0 0  
Month to date heating degree days 8 0  
Since 1 July heating degree days 8 0  
Cooling Degree Days 7 8  
Month to date cooling degree days 225 308  
Year to date cooling degree days 3460 3184  
Growing Degree Days 22 (Base 50)    
Moisture  
Dew Point 66 °F    
Average Humidity 85    
Maximum Humidity 100    
Minimum Humidity 69    
Precipitation  
Precipitation 0.11 in 0.07 in 2.43 in (1975)
Month to date precipitation 7.47 3.10  
Year to date precipitation 54.55 45.77  
Sea Level Pressure  
Sea Level Pressure 29.93 in    
Wind  
Wind Speed 5 mph (NE)    
Max Wind Speed 10 mph    
Max Gust Speed 14 mph    
Visibility 10 miles    
Events Rain    
T = Trace of Precipitation, MM = Missing Value Source: NWS Daily Summary

Daily Weather History Graph

Daily Weather History Graph

Search for Another Location

Airport or City:

Trip Planner

Search our weather history database for the weather conditions in past years. The results will help you decide how hot, cold, wet, or windy it might be!

Date:

Astronomy

Oct. 28, 2011 Rise Set
Actual Time 7:34 AM EDT 6:43 PM EDT
Civil Twilight 7:09 AM EDT 7:07 PM EDT
Nautical Twilight 6:42 AM EDT 7:35 PM EDT
Astronomical Twilight 6:14 AM EDT 8:03 PM EDT
Moon 9:34 AM EDT (10/28) 8:19 PM EDT (10/28)
Length of Visible Light 11h 57m
Length of Day
11h 09m
Waxing Crescent, 5% of the Moon is Illuminated
Oct 28
Waxing Crescent
Nov 2
First Quarter
Nov 10
Full
Nov 18
Last Quarter
Nov 25
New

Hourly Weather History & Observations

Time (EDT) Temp. Dew Point Humidity Pressure Visibility Wind Dir Wind Speed Gust Speed Precip Events Conditions
12:53 AM 73.0 °F 64.0 °F 73% 29.95 in 10.0 mi NW 3.5 mph - N/A   Mostly Cloudy
1:53 AM 71.1 °F 64.9 °F 81% 29.95 in 10.0 mi Calm Calm - N/A   Overcast
2:53 AM 71.1 °F 64.9 °F 81% 29.95 in 10.0 mi Calm Calm - 0.00 in Rain Light Rain
3:53 AM 70.0 °F 66.0 °F 87% 29.94 in 10.0 mi NNW 5.8 mph - 0.00 in Rain Light Rain
4:53 AM 70.0 °F 66.0 °F 87% 29.94 in 10.0 mi NNW 3.5 mph - 0.00 in   Overcast
5:53 AM 70.0 °F 66.0 °F 87% 29.94 in 10.0 mi NNW 4.6 mph - 0.00 in   Overcast
6:53 AM 69.1 °F 66.0 °F 90% 29.96 in 10.0 mi NE 3.5 mph - 0.00 in Rain Light Rain
7:53 AM 69.1 °F 66.0 °F 90% 29.97 in 10.0 mi NNE 3.5 mph - 0.01 in Rain Light Rain
8:53 AM 69.1 °F 66.0 °F 90% 29.98 in 8.0 mi ENE 6.9 mph - 0.03 in Rain Light Rain
9:53 AM 69.1 °F 66.0 °F 90% 29.98 in 10.0 mi NNE 5.8 mph - 0.03 in Rain Light Rain
10:53 AM 70.0 °F 62.1 °F 76% 29.98 in 10.0 mi NNE 6.9 mph - 0.00 in Rain Light Rain
11:53 AM 73.0 °F 63.0 °F 71% 29.97 in 10.0 mi NNE 9.2 mph - 0.00 in   Overcast
12:53 PM 73.9 °F 64.0 °F 71% 29.95 in 10.0 mi NNE 5.8 mph - N/A   Overcast
1:53 PM 75.0 °F 64.9 °F 71% 29.93 in 10.0 mi East 3.5 mph - N/A   Overcast
2:53 PM 75.0 °F 66.0 °F 73% 29.91 in 10.0 mi East 5.8 mph - 0.00 in Rain Light Rain
3:53 PM 72.0 °F 66.9 °F 84% 29.91 in 10.0 mi ENE 4.6 mph - 0.00 in Rain Light Rain
4:53 PM 71.1 °F 66.9 °F 87% 29.90 in 10.0 mi NE 5.8 mph - 0.02 in Rain Light Rain
5:53 PM 70.0 °F 68.0 °F 93% 29.89 in 10.0 mi NNE 5.8 mph - 0.01 in Rain Light Rain
6:53 PM 70.0 °F 68.0 °F 93% 29.89 in 10.0 mi East 5.8 mph - 0.00 in   Overcast
7:53 PM 70.0 °F 68.0 °F 93% 29.91 in 10.0 mi East 3.5 mph - N/A   Overcast
8:53 PM 70.0 °F 68.0 °F 93% 29.91 in 10.0 mi East 5.8 mph - N/A   Overcast
9:53 PM 71.1 °F 69.1 °F 93% 29.91 in 10.0 mi NE 4.6 mph - N/A   Overcast
10:53 PM 70.0 °F 69.1 °F 97% 29.91 in 10.0 mi NNW 3.5 mph - N/A   Overcast
11:53 PM 70.0 °F 69.1 °F 97% 29.90 in 10.0 mi Calm Calm - 0.00 in Rain Light Rain